ATLAS AGENA D R/B, 4511

Orbit data source: Space-Track

ATLAS AGENA D R/B, 4511 is space debris in GEO originally from a launch on Fri, 19 Jun 1970 UTC launched from the Air Force Eastern Test Range (AFETR). Debris objects in space refer to the collection of defunct objects orbiting the Earth. Examples of debris include non-operational satellites, rocket bodies, and fragments generated from explosions, collisions, or faulty payload assembly.

Not visible in the next 10 days
Identifier
4511, 1970-046B
Orbit
GEO
Country
Flag of USUS
Related business
Manufacturer
LMSC
Mission
Spacecraft
Bus & Motor
AGENA D, Unknown motor
Mass
600 kg wet, 600 kg dry
Launch date (UTC)
1970-06-19 (56 years ago)
Launch vehicle
Unknown
Launch site
Air Force Eastern Test Range (AFETR)
Object type
Payload
Rocket body
Debris
Shape & HBR
Unknown
Radar Cross Section
RCS unknown

Expand to show TLE details & history
Last TLE update: 1 day ago

TLE from 1 day ago
0 ATLAS AGENA D R/B
1 04511U 70046B   26093.28312688 -.00000156  00000-0  00000-0 0  9999
2 04511   1.5054  85.4214 0031457 304.6115  55.9112  1.00395503 24805
Epoch: 2026-04-03T06:47Z
TLE epoch observation values (Epoch: 2026-04-03T06:47:42.162Z)
Latitude
-0.00001°
Longitude
152.70846°
Altitude
35,677.456 km
Speed
3.081 km/s
True Right ascension
05h 45m 00s
True Declination
0° 00' 00"
Sunlit
Object was in daylight at epoch
Visualization orbit readout
Latitude
Unknown
Longitude
Unknown
Altitude
Unknown
Speed
Unknown
Apparent Right ascension
Unknown
Apparent Declination
Unknown
Sunlit
N/A
Visualization observer readout
Local Sidereal Time
14:41:22
Azimuth
Unknown
Elevation
Unknown
Doppler factor
Unknown
Orbital elements
Apogee altitude
35,885.55 km
Perigee altitude
35,620.486 km
Semi-major axis
42,131.155 km
Eccentricity
0.00315
Inclination
1.5054°
RAAN
85.4214°
Arg. of periapsis
304.6115°
True anomaly
56.21039°
Mean anomaly
55.9112°
Eccentric anomaly
56.06073°
Mean motion
0.25098 °/min
Orbital period
1,434.38 mins
BSTAR
0
Loading maneuver chart data...
Computing Atmospheric mass density...
Loading historical data...
Loading historical data...
Loading historical data...
Loading historical data...
Loading historical data...
Loading historical data...
Loading historical data...
Other satellites on launch #46 in the year 1970 (1970-06-19 UTC)

Documentation

Showing up to 5 results
|